Regional Weather Roundup
Issued by NWS Wakefield, VA

Home | Current Version | Previous Version | Text Only | Print | Product List | Glossary Off
Versions: 1 2 3 4 5 6 7 8 9 10 11 12 13 14 15 16 17 18 19 20 21 22 23 24 25 26 27 28 29 30 31 32 33 34 35 36 37 38 39 40 41 42 43 44 45 46 47 48 49 50

000
ASUS41 KAKQ 021110
RWRAKQ

REGIONAL WEATHER ROUNDUP
NATIONAL WEATHER SERVICE WAKEFIELD VA
700 AM EDT TUE SEP 02 2014

Note: "fair" indicates few or no clouds below 12,000 feet with no
significant weather and/or obstructions to visibility. * = Denotes
station may not report precipitation (e.g., rain,snow,etc.),
thunder or fog.

VAZ042-051-052>054-056-021200-
NORTHERN VIRGINIA

CITY           SKY/WX    TMP DP  RH WIND       PRES   REMARKS
WASH NATIONAL  PTCLDY    78  70  76 SW5       29.97R
DULLES         PTCLDY    71  69  93 S5        29.98R
FORT BELVOIR   CLEAR     70  70 100 CALM      29.98R FOG
QUANTICO       PTCLDY    74  70  87 W3        29.98R
FREDERICKSBRG* CLEAR     74  73  96 CALM      29.98R
STAFFORD*      CLEAR     69  69 100 CALM      30.02S
WARRENTON      NOT AVBL
CULPEPER*      PTCLDY   N/A N/A N/A CALM      29.99R
MANASSAS*      NOT AVBL
LEESBURG*      CLEAR     72  72 100 S3        29.99R
WINCHESTER     PTCLDY    72  64  78 S7        29.99R
$$

VAZ048-049-060>072-079>083-021200-
CENTRAL AND SOUTH CENTRAL VIRGINIA...AND NORTH CENTRAL NORTH CAROLINA

CITY           SKY/WX    TMP DP  RH WIND       PRES   REMARKS
RICHMOND       PTCLDY    75  69  81 SE5       30.01R
CHESTERFIELD*  MOSUNNY  N/A N/A N/A SW3       30.03R
PETERSBURG*    CLEAR     68  67  96 CALM      30.02S
HANOVER        PTCLDY    72  69  90 CALM      30.02R
TAPPAHANNOCK*  CLEAR     73  68  86 CALM      30.01R
CHARLOTTSVILLE PTCLDY    71  67  87 VRB3      30.00S
ORANGE*        CLEAR     68  66  94 CALM      30.01S
LOUISA*        CLEAR     72  68  88 SW3       29.99S
FARMVILLE*     CLEAR     70  70 100 SW3       30.01S
SOUTH HILL*      N/A     72  72 100 S5        30.10R
ROANOKE RAPIDS SUNNY     72  72 100 SW6       30.05R FOG
RALEIGH        PTCLDY    72  68  87 SW3       30.07R
$$

VAZ088>098-021200-
SOUTHEAST VIRGINIA

CITY           SKY/WX    TMP DP  RH WIND       PRES   REMARKS
NORFOLK        MOCLDY    79  74  84 SW10      30.02R
VIRGINIA BEACH PTCLDY    78  75  90 SW10      30.01R
NORFOLK NAVAL  PTCLDY    80  75  84 SW6       30.03R
WEST POINT*    NOT AVBL
NEWPORT NEWS   CLEAR     81  74  79 SW8       30.02R
LANGLEY AFB    PTCLDY    78  78 100 W8        30.01R
FORT EUSTIS    CLEAR     76  76 100 S3        30.00R
WILLIAMSBURG*  CLEAR     79  73  83 SW5       30.02R
FRANKLIN*      CLEAR     75  75 100 CALM      30.03R
WAKEFIELD      CLEAR     75  72  90 SW3       30.03R FOG
$$

VAZ020-022-025-037-045-021200-
WESTERN AND SOUTHWEST VIRGINIA

CITY           SKY/WX    TMP DP  RH WIND       PRES   REMARKS
STAUNTON*      CLEAR     66  62  85 CALM      30.06S
HOT SPRINGS VA CLOUDY    65  63  90 W17G24    30.21S
LYNCHBURG      PTCLDY    67  67 100 S5        30.07R
DANVILLE       CLEAR     68  65  90 CALM      30.06S
MARTINSVILLE   CLEAR     66  66 100 CALM      30.10S FOG
ROANOKE        MOCLDY    73  65  75 W7        30.09R
BLACKSBURG     MOCLDY    66  66 100 CALM      30.16R FOG
DUBLIN*        MOCLDY    67  67  98 SW3       30.15S
MARION*        MOCLDY   N/A N/A N/A W3        30.20R
HILLSVILLE*    PTCLDY    65  62  92 SW5       30.18R
RICHLANDS*     MOSUNNY   73  68  84 W6        30.17S
WISE*          PTCLDY    72  68  88 SW12      30.18R
ABINGDON*      MOCLDY    69  67  94 CALM      30.16R
$$

MDZ021>025-VAZ099-100-021200-
SOUTHERN MARYLAND AND THE DELMARVA PENINSULA

CITY           SKY/WX    TMP DP  RH WIND       PRES   REMARKS
PATUXENT RIVER PTCLDY    74  70  87 W5        29.98R
BAY BRIDGE APT   N/A     77  72  83 SW3       29.97R
LEONARDTOWN    CLEAR     72  68  88 CALM      30.00R
DOVER          CLEAR     74  74 100 SW7       29.95R
GEORGETOWN     CLEAR     77  71  82 S7        29.98R
EASTON         CLEAR     75  75 100 CALM      30.00R
CAMBRIDGE      CLEAR     72  70  94 CALM      29.97
SALISBURY      CLEAR     77  72  84 SW3       29.99R
OCEAN CITY     CLEAR     77  73  87 W6        29.98R
WALLOPS ISLAND CLEAR     78  73  84 W7        29.99R
ACCOMACK*      NOT AVBL
$$

NCZ012>017-030>032-021200-
EASTERN NORTH CAROLINA

CITY           SKY/WX    TMP DP  RH WIND       PRES   REMARKS
ELIZABETH CITY CLEAR     77  74  90 SW7       30.04R
AHOSKIE*       CLEAR     73  72  96 CALM      30.05R
EDENTON*       CLEAR     78  75  91 W8        30.05R
CURRITUCK*     CLEAR     77  73  88 SW7       30.04R
KILL DEVIL HLS CLEAR     78  74  87 SW8       30.04R
MANTEO         CLEAR     77  74  91 SW7       30.05R
CAPE HATTERAS  CLEAR     78  76  93 W9        30.07R
GOLDSBORO      CLEAR     76  76  99 SW2       30.06R
WASHINGTON     CLEAR     75  73  95 SW5       30.07R
GREENVILLE     CLEAR     75  73  94 SW5       30.08R FOG
NEW BERN       CLEAR     77  74  90 SW3       30.09R
WILMINGTON     CLEAR     78  76  93 SW6       30.08R
$$

VAZ048-021200-
ELSEWHERE

CITY           SKY/WX    TMP DP  RH WIND       PRES   REMARKS
HARRISBURG PA  MOCLDY    73  70  90 CALM      29.94R
BALTIMORE      PTCLDY    73  72  96 CALM      29.96R
ANNAPOLIS      CLEAR     76  71  85 CALM      29.96R
ANDREWS AFB    CLEAR     73  70  92 S6        29.98R
WILMINGTON DE  CLEAR     74  73  97 SW5       29.96R
PHILADELPHIA   PTCLDY    76  71  85 SW9       29.95R
WILDWOOD NJ*   PTCLDY    75  72  88 SW8       29.97R
ATLANTIC CITY  CLEAR     74  73  97 SW5       29.95R
HENDERSON NC   CLEAR     70  68  93 SW5       30.07R
GREENSBORO     PTCLDY    71  68  90 SW5       30.08R
ROCKY MOUNT    CLEAR     74  72  93 S6        30.06R FOG
FAYETTEVILLE   CLEAR     75  73  93 S6        30.07R
CHARLOTTE      PTCLDY    71  68  90 CALM      30.10R
$$

VAZ100-021200-
MARINE

STATION/POSITION TIME  TEMP    WIND        PRES    WAVE   SWELL
                       AIR SEA DIR/SP/G            HT/PER HT/PER
                 (UTC) (F)     (DEG/KT/KT) (MB)    (FT/S) (FT/S)
44066 TX TWR #4  1100   74 74  240/  8/ 10 1014.0R   3/ 5   3/ 5
CAPE MAY NJ      1100   77 80  250/  9/ 11 1014.0R
LEWES DE         1100   77 77  250/  7/ 10 1014.3R
15NM E FENWICK I 1100   77 75              1014.6R   3/ 5
OCEAN-CITY-INLET 1100   77 76  280/  7/  9 1014.7R
WACHAPREAGUE VA  1100   75 81  260/  2/  3 1015.7R
THOMAS POINT MD  1100   78 79  250/  6/  7 1015.6R
GOOSES REEF MD   1100   78     240/  8/ 10 1015.3R
COVE POINT MD    1100   78     260/  9/ 10 1014.8R
SOLOMONS ISLAND  1100      80                N/A
BISHOPS HEAD MD  1100   80 81  240/  6/  8 1014.9R
PINEY POINT MD   1100          270/  4/  5   N/A
POTOMAC MD       1100   79     250/  6/  8 1014.7R
CAMBRIDGE MD     1100   76 80  220/  2/  4 1014.7R
LEWISETTA VA     1100   76 81  250/  8/ 10 1015.0R
RAPPAHANNOCK LGT 1100          230/ 13/ 15 1016.2R
STINGRAY PT      1100   78     240/ 14/ 14   N/A
YORK RVR RNG VA  1100   78     250/ 10/ 11 1015.5R
YORKTOWN VA      1100   78 80  230/  9/ 10 1015.6S
JAMESTOWN VA     1100   74     250/  4/  6   N/A
DOMINION TERM VA 1100   79     260/  5/  7 1016.7R
KIPTOPEKE VA     1100      83  250/ 13/ 15   N/A
CHES BAY BRIDGE  1100   79 80  220/ 12/ 14 1015.8R
CAPE HENRY VA    1100   79     230/  8/ 12 1015.1R
CHESAPEAKE LGHT  1000   79     250/ 16/ 17 1016.3R
WILLOUBY STN VA  1100   79     240/ 11/ 13 1015.1R
S CRANEY ISL VA  1100          220/  4/  5 1016.3R
CAPE HENRY BUOY  1100      79                N/A     2/11   2/11
1ST LANDING BUOY 1100   80     240/ 12/ 14 1015.9R
CAPE CHARLES BUO 1100      79                N/A     2/ 9   2/ 9
OFFSHORE WE BUOY 1100      78                N/A     3/10   2/10
64NM E OF VA BCH 1100   78 77  230/ 14/ 16 1016.3R   3/ 8   2/ 8
DUCK PIER NC     1100   79 75  230/ 12/ 16 1016.5R
44056 DUCK FRF   1100                        N/A     2/11   2/11
OREGON INLET NC  1100   79 84  240/ 13/ 15 1017.5R
HATTERAS NC      1100   80 84  240/  8/ 12 1018.6R
DIAMOND SHLS NC  1100   81     250/ 14/ 16 1018.1R   4/ 5   2/ 9
CAPE LOOKOUT NC  1000   80     250/  9/ 11 1017.8R
$$



USA.gov is the U.S. government's official web portal to all federal, state and local government web resources and services.